IRIDIUM 152

Last updated on Sun Jun 21 2026 00:03:14 GMT+0000 (Coordinated Universal Time)

1 43479U 18047D 26171.31118420 .00000206 00000+0 66370-4 0 9997 2 43479 86.3956 87.0263 0002328 82.8248 277.3212 14.34218292422939
UTC large
Height (km)
Speed (km/s)
/
Latitude / Longitude
Inclination (degrees)
Orbital Period (minutes)
Azimuth
Elevation
Range (km)
Doppler Factor

Next 0 passes for location: London (51.5072 / 0.1276)

No passes found over London.
IRIDIUM 152